Location: Bastelaar
(51.0950°N, 3.8602°E)
Time: 07:14:04
(UTC+00:00)

Cosmos 2016 Rocket - Visible Passes

Search period start: 12 February 2026 00:00
Search period end: 22 February 2026 00:00
Orbit: 946 x 1000 km, 83.0° (Epoch: 11 February)

Date Brightness Start Highest point End Pass type
(mag) Time Alt. Az. Time Alt. Az. Time Alt. Az.
12 Feb 5.3 06:02:14 10° SSE 06:07:57 45° E 06:13:44 10° NNE visible
12 Feb 5.7 18:37:09 10° NNW 18:42:41 35° W 18:48:16 10° SSW visible
13 Feb 7.0 04:45:14 10° ESE 04:48:10 14° ENE 04:51:08 10° NE visible
13 Feb 4.3 06:26:19 10° S 06:32:23 74° E 06:38:31 10° NNE visible
13 Feb 6.5 19:02:20 10° NNW 19:06:52 22° W 19:11:26 10° SW visible
14 Feb 6.4 05:07:35 10° SE 05:12:14 23° E 05:16:54 10° NNE visible
14 Feb 4.5 17:40:36 10° NNW 17:46:47 67° W 17:53:02 10° S visible
14 Feb 7.1 19:28:21 10° NW 19:30:55 13° WNW 19:33:30 10° W visible
15 Feb 5.6 05:30:54 10° SSE 05:36:26 38° E 05:42:02 10° NNE visible
15 Feb 5.5 18:05:24 10° NNW 18:11:11 41° W 18:17:01 10° SSW visible
16 Feb 7.2 04:14:56 10° E 04:16:47 11° ENE 04:18:37 10° NE visible
16 Feb 4.6 05:54:49 10° S 06:00:48 63° E 06:06:52 10° NNE visible
16 Feb 6.4 18:30:28 10° NNW 18:35:27 26° W 18:40:27 10° SW visible
17 Feb 6.6 04:36:35 10° ESE 04:40:46 20° E 04:45:00 10° NE visible
17 Feb 7.0 18:56:03 10° NW 18:59:32 16° WNW 19:03:01 10° WSW visible
18 Feb 5.8 04:59:38 10° SE 05:04:56 32° E 05:10:17 10° NNE visible
18 Feb 5.2 17:33:41 10° NNW 17:39:41 49° W 17:45:43 10° SSW visible
19 Feb 4.9 05:23:22 10° SSE 05:29:14 53° E 05:35:13 10° NNE visible
19 Feb 6.2 17:58:38 10° NNW 18:03:59 30° W 18:09:21 10° SW visible
20 Feb 6.8 04:05:43 10° ESE 04:09:21 17° ENE 04:13:00 10° NE visible
20 Feb 4.1 05:47:36 10° S 05:53:43 85° E 05:59:55 10° N visible
20 Feb 6.9 18:23:59 10° NW 18:28:08 19° WNW 18:32:17 10° WSW visible
21 Feb 6.1 04:28:27 10° SE 04:33:27 27° E 04:38:31 10° NNE visible
21 Feb 4.0 06:12:19 10° SSW 06:18:20 60° WNW 06:24:29 10° N visible
21 Feb 7.3 18:50:41 10° WNW 18:52:07 11° WNW 18:53:33 10° W visible
